Location: Treviso
(45.6669°N, 12.2430°E)
Time: 01:10:31
(UTC+01:00)

ISS - Pass Details

Date: 13 March 2026
Orbit: 416 x 426 km, 51.6° (Epoch: 9 March)

Event Time Altitude Azimuth Distance (km) Brightness Sun altitude
Rises 19:43:47 0° 240° (WSW) 2,373 0.8 -16.4°
Reaches altitude 10° 19:45:53 10° 241° (WSW) 1,510 -0.3 -16.7°
Maximum altitude 19:49:17 89° 333° (NNW) 428 -3.8 -17.3°
Enters shadow 19:50:17 43° 60° (ENE) 605 -3.3 -17.5°
